Location: Cheching
(60.0667°N, 164.2167°W)
Time: 10:55:19
(UTC+00:00)

NOAA 19 - Pass Details

Date: 23 January 2021
Orbit: 840 x 862 km, 99.2° (Epoch: 27 February)

Event Time Altitude Azimuth Distance (km) Brightness Sun altitude
Rises 16:57:43 0° 21° (NNE) 3,432 8.5 -18.0°
Reaches altitude 10° 17:00:27 10° 32° (NNE) 2,488 7.9 -17.7°
Maximum altitude 17:05:11 29° 92° (E) 1,524 7.3 -17.1°
Drops below altitude 10° 17:09:53 10° 151° (SSE) 2,463 8.2 -16.5°
Sets 17:12:33 0° 163° (SSE) 3,392 8.7 -16.2°
